GFSFLT2_925_spd_099.txt.gz
Wind_Speed
32 29 27 26 24 24 23 23 22 22 22 22 21 21 20 20 19 19 19 19 19 19 20 22 22 24 24 22 20 20 18 19
31 30 29 27 25 24 23 23 22 22 23 23 22 22 22 21 21 21 21 20 20 20 21 23 23 24 25 23 19 19 20 19
30 29 29 28 26 24 22 22 22 22 21 22 22 23 23 23 23 23 22 21 21 21 23 23 23 24 22 22 21 20 19 20
29 29 28 27 26 24 23 23 23 22 22 22 23 24 24 25 24 24 24 23 22 23 22 24 25 23 25 25 24 23 22 21
31 30 30 28 28 27 25 25 24 24 24 24 25 25 25 25 25 26 27 24 24 23 24 26 25 25 28 28 23 19 21 22
33 32 32 31 30 30 29 29 27 28 26 26 27 27 27 27 28 30 30 28 27 28 28 26 25 25 27 29 25 25 22 26
35 34 35 35 34 33 32 31 30 29 29 29 29 30 29 30 31 32 32 32 30 32 29 27 26 25 26 26 22 21 25 27
35 37 37 37 37 35 35 34 33 32 30 31 30 31 32 32 33 32 32 33 31 33 30 29 26 22 23 21 22 20 19 28
41 40 39 38 38 36 35 35 34 34 32 32 32 31 33 32 33 31 31 31 31 30 29 26 19 19 19 21 22 24 27 26
42 42 41 42 40 38 36 37 35 36 35 33 33 32 32 32 32 29 30 30 29 29 30 29 26 21 23 23 24 26 26 24
40 44 45 46 43 39 38 38 37 36 34 35 35 33 32 32 31 27 26 29 29 30 28 30 28 26 23 26 27 27 29 29
34 42 44 47 42 37 35 35 37 35 34 35 35 35 33 32 31 29 25 26 26 29 28 27 24 26 24 24 27 26 26 30
28 35 39 35 32 31 27 29 33 36 38 37 35 35 34 33 32 30 27 28 28 28 28 27 23 26 18 17 18 23 27 30
27 35 37 40 35 37 27 32 31 33 36 36 35 34 33 32 31 30 29 28 27 27 28 18 16 25 10 8 2 2 19 30
23 31 39 42 38 30 22 25 20 24 31 37 38 34 32 31 30 30 30 28 27 28 29 26 18 23 24 7 2 3 3 9
17 31 38 39 36 33 34 35 24 27 32 32 35 32 32 30 27 30 30 28 27 27 30 30 25 20 25 23 9 8 3 3
26 24 37 37 38 37 38 30 29 29 26 27 31 31 31 28 28 30 29 29 27 28 28 26 31 22 24 22 15 15 12 3
29 12 29 34 37 36 36 34 29 26 27 33 33 34 30 30 28 30 30 29 28 26 26 25 24 25 22 21 25 14 11 7
29 22 22 30 32 31 32 31 33 34 31 30 29 32 32 32 30 30 28 27 27 27 25 26 26 28 26 26 24 24 21 20
31 29 12 26 27 28 28 31 32 30 32 31 32 32 29 31 30 28 25 24 28 24 23 25 26 30 32 29 31 28 27 27

GFSFLT2_925_spd_105.txt.gz
Wind_Speed
27 27 29 28 28 27 26 25 24 24 23 22 23 23 22 22 22 21 20 20 19 18 18 18 19 19 19 20 21 21 17 16
24 24 25 25 26 25 26 26 24 23 24 22 22 21 21 22 21 21 20 19 19 18 18 19 19 19 20 20 20 20 17 17
17 22 24 26 26 26 24 23 23 24 23 23 22 20 21 21 22 23 21 20 19 18 19 20 19 19 20 19 18 16 16 17
16 17 19 21 25 24 24 23 23 23 24 25 23 23 21 20 21 22 22 20 19 18 19 19 19 16 19 20 17 17 16 19
20 19 18 21 23 23 24 26 27 27 25 23 23 23 24 22 19 22 20 20 18 18 19 19 19 17 20 18 16 19 16 16
20 23 24 25 23 23 22 24 27 28 27 26 25 28 28 22 20 20 20 20 20 21 21 20 19 19 20 22 21 19 19 15
20 24 26 25 25 21 21 26 28 28 23 28 28 28 30 29 23 23 23 24 23 22 21 21 20 19 20 21 22 19 17 18
23 24 21 30 32 26 24 23 24 27 28 26 28 24 25 29 29 28 25 25 24 23 22 21 17 17 18 20 16 18 16 14
17 27 33 32 37 37 33 26 24 24 25 28 31 30 28 30 28 30 29 26 25 24 21 20 16 17 20 18 15 17 18 19
24 20 27 36 37 41 42 35 26 24 29 29 32 33 31 30 29 28 30 28 26 25 23 19 18 17 18 17 16 17 20 15
21 22 22 27 33 36 33 30 32 33 27 31 34 35 34 33 30 28 28 26 28 27 25 22 18 18 16 16 16 17 19 14
17 18 21 25 27 27 26 28 29 33 36 35 35 35 37 35 30 30 29 26 27 27 26 26 23 20 17 15 14 14 19 17
17 17 18 19 22 25 27 30 33 33 33 36 35 36 37 36 32 31 29 29 26 27 25 23 21 21 14 12 13 15 17 22
20 18 17 14 23 27 30 32 32 34 33 30 33 35 37 35 34 34 32 29 27 25 25 17 18 25 10 7 2 7 19 23
22 22 21 18 17 25 25 24 26 26 30 31 36 37 42 39 36 36 35 32 28 29 28 21 16 22 22 7 2 3 3 13
21 23 24 21 17 22 29 28 26 31 32 35 38 36 35 38 39 36 37 32 30 30 27 28 22 15 21 25 12 4 3 3
26 25 24 23 21 21 29 32 32 30 29 31 34 35 39 38 36 35 35 34 33 31 27 28 30 21 22 13 16 11 8 3
26 27 27 25 24 20 30 34 33 27 30 29 30 31 34 39 40 41 39 36 34 30 30 30 29 26 26 21 20 10 10 5
27 28 30 28 26 22 27 34 34 31 30 29 29 29 30 35 44 40 40 38 33 28 29 28 29 28 25 23 22 24 17 16
28 30 31 31 29 25 23 31 29 31 31 28 28 29 32 33 38 36 35 35 29 27 25 25 28 28 28 26 24 24 25 21

GFSFLT2_925_spd_111.txt.gz
Wind_Speed
12 16 22 24 24 23 22 20 18 18 18 19 20 21 21 22 22 22 19 17 15 15 15 14 14 13 13 12 13 13 13 11
14 15 17 17 21 22 21 20 20 19 18 18 19 19 20 21 21 20 19 17 16 16 16 15 15 14 14 14 14 13 16 15
15 16 19 17 16 17 20 19 19 19 19 19 19 17 17 17 19 18 19 19 17 17 16 16 16 15 15 15 15 13 14 15
14 14 17 19 18 17 17 17 18 18 17 17 17 17 17 18 18 20 19 19 18 17 17 16 17 13 14 17 14 15 18 16
16 15 17 19 18 18 18 19 18 18 18 19 19 19 18 17 18 18 18 20 17 18 16 16 17 16 19 14 16 17 17 12
15 18 18 18 18 19 18 19 20 20 21 22 20 21 21 19 20 19 21 20 20 19 19 20 20 19 17 14 16 16 14 11
8 15 17 18 19 19 19 20 21 21 18 22 24 22 21 21 21 21 21 22 20 21 19 18 20 19 17 15 16 15 14 12
7 10 15 17 19 20 21 21 21 20 20 24 25 24 21 21 22 22 21 18 22 20 20 19 19 19 18 18 17 16 15 13
3 7 10 16 17 18 21 22 22 22 22 23 26 27 24 25 24 23 23 20 20 22 22 19 18 16 17 16 17 15 14 15
6 6 8 12 17 17 20 23 23 24 23 24 30 28 29 27 25 27 23 21 20 21 23 20 19 17 17 17 16 15 15 13
8 8 8 10 14 21 23 23 24 25 25 26 27 31 30 29 24 27 27 27 22 21 22 21 19 19 18 16 14 14 13 14
9 10 10 10 13 17 23 26 27 27 27 27 27 28 30 28 25 24 26 27 28 22 23 23 20 19 17 15 14 12 13 13
12 12 11 11 12 14 19 23 26 27 30 28 28 28 27 30 29 27 29 29 30 29 23 22 22 17 10 11 11 11 13 17
14 14 14 13 13 14 17 23 22 28 28 29 31 28 29 31 32 31 32 31 30 30 29 21 20 21 11 7 4 7 14 16
15 16 17 16 17 17 18 21 27 26 27 29 29 32 33 33 34 31 30 31 30 33 31 28 21 21 20 10 3 5 3 14
15 16 18 19 19 19 19 21 24 26 27 29 30 32 33 35 34 37 32 33 30 32 31 29 23 20 21 24 19 8 6 5
17 18 18 19 20 20 22 23 24 27 31 30 30 30 34 35 37 35 36 35 33 31 30 31 29 23 24 16 22 16 14 7
19 19 20 21 21 21 22 26 27 28 29 32 28 30 29 34 35 38 38 34 34 33 34 35 33 28 24 21 20 13 11 12
22 22 24 24 24 24 25 26 28 31 32 32 33 27 27 30 37 36 37 37 34 35 35 30 28 29 28 24 23 21 18 18
23 24 27 27 27 27 27 27 28 31 33 35 34 31 32 30 35 36 36 36 35 34 34 34 41 35 27 26 21 21 19 18

GFSFLT2_925_spd_114.txt.gz
Wind_Speed
11 14 23 22 21 19 18 17 18 18 19 19 19 19 19 19 20 19 17 15 13 12 11 11 10 11 11 10 10 11 12 16
9 10 21 22 22 21 20 19 18 18 18 18 19 18 18 18 20 20 18 16 15 14 12 12 11 11 12 12 12 12 15 16
12 13 17 19 19 22 21 19 18 18 18 17 17 18 19 19 21 20 19 17 16 14 14 13 12 12 13 14 14 14 12 11
15 16 18 17 17 18 22 21 20 19 18 18 18 17 16 18 18 20 18 18 17 15 14 14 13 12 14 17 17 15 10 13
21 20 18 20 19 22 21 19 20 20 18 18 20 17 19 18 21 21 21 20 19 18 17 16 15 14 17 15 17 16 14 13
20 20 23 23 25 16 20 22 22 21 22 21 19 21 21 21 21 24 24 21 21 17 18 17 15 16 15 17 14 16 17 11
9 16 19 19 24 22 20 23 26 21 24 26 26 24 22 23 23 21 25 24 23 21 21 18 18 18 19 16 16 17 16 14
5 3 14 18 20 22 21 17 20 25 25 22 30 26 25 24 25 25 24 27 26 23 21 22 19 18 20 20 18 15 15 15
11 11 10 7 12 16 20 15 22 22 26 28 23 29 27 26 25 27 24 25 27 26 22 18 20 20 19 18 18 16 15 14
13 10 13 13 11 11 16 18 19 26 23 24 26 28 33 24 31 24 21 24 28 27 28 24 21 19 17 17 16 16 16 16
10 9 10 12 14 12 12 15 21 23 26 24 30 32 30 32 27 34 31 19 20 24 28 26 24 21 17 17 17 16 16 17
6 7 9 11 13 14 17 21 22 25 25 28 26 30 35 31 30 31 30 29 24 20 26 25 23 24 20 20 19 16 15 16
10 8 9 11 12 15 16 14 18 21 27 29 28 30 32 36 33 30 33 35 33 30 22 26 21 20 17 14 10 13 18 19
11 13 14 14 14 17 19 23 23 26 27 20 36 31 34 36 35 30 30 30 32 30 25 22 21 23 9 12 3 8 20 21
13 14 15 16 16 17 18 20 21 21 22 26 24 27 32 36 35 35 31 30 29 33 32 27 22 26 24 7 3 4 4 15
15 16 17 16 18 19 19 19 20 22 27 28 29 26 41 35 38 36 35 30 31 33 33 34 27 23 27 28 13 7 3 2
16 17 18 19 19 18 19 20 21 24 28 32 32 31 28 39 39 36 35 32 33 34 34 34 35 30 29 24 25 20 14 2
16 17 19 21 22 21 20 21 23 25 26 28 31 32 31 29 41 41 39 39 35 34 35 35 37 33 29 27 23 17 13 6
19 20 21 23 24 23 23 24 26 27 27 27 30 33 33 34 33 41 41 39 38 36 36 36 38 35 32 31 24 23 18 19
22 23 25 27 26 26 25 25 25 27 28 29 31 34 35 34 31 38 38 37 42 37 36 35 37 37 34 31 29 27 26 24

GFSFLT2_925_spd_120.txt.gz
Wind_Speed
18 19 22 21 20 18 18 18 19 19 20 20 21 20 19 18 19 19 18 16 13 11 10 10 10 9 9 9 9 8 7 8
20 20 21 22 22 20 19 18 19 20 19 20 21 21 20 19 19 20 19 18 16 14 12 11 11 11 11 11 11 10 9 9
19 21 21 21 24 24 22 20 19 19 19 20 21 22 23 22 21 21 21 20 18 16 14 13 13 13 13 12 12 11 12 11
21 21 21 21 25 26 25 23 23 23 23 22 23 23 24 23 23 23 23 22 20 19 17 15 15 15 14 14 13 12 13 13
23 24 21 20 24 25 25 25 24 24 24 25 25 24 24 25 25 25 26 25 24 22 20 19 18 18 17 16 15 14 15 14
24 25 22 21 21 24 24 23 24 25 25 25 26 26 27 28 29 29 29 29 28 26 25 23 21 20 19 17 16 14 16 17
16 20 20 19 20 19 21 24 26 25 25 26 26 28 30 30 31 31 31 31 30 29 28 27 25 22 21 20 19 18 16 18
8 8 8 11 17 15 17 22 26 28 30 31 32 33 34 34 33 32 32 32 32 31 31 30 28 26 23 22 21 19 19 19
24 20 15 10 2 1 6 13 14 23 32 31 31 33 35 35 35 34 36 35 33 33 33 31 29 28 26 23 23 23 23 22
21 18 15 12 10 6 7 5 14 18 20 22 22 30 38 35 35 35 38 35 37 36 35 33 32 31 29 26 24 24 25 24
24 19 15 11 9 8 8 7 5 8 12 14 17 46 36 30 32 34 37 34 37 36 35 35 34 35 33 29 27 25 24 23
23 19 18 16 13 11 11 12 13 15 13 14 14 14 34 43 39 32 37 36 37 37 37 37 35 36 33 31 26 25 25 25
24 23 22 20 23 25 22 23 23 20 23 17 14 11 9 9 24 32 35 35 40 40 32 30 31 31 24 22 23 23 24 26
25 23 22 24 23 22 17 24 16 23 20 23 21 19 19 16 14 16 31 35 33 41 40 28 29 24 15 7 3 6 25 27
24 23 22 23 23 22 22 23 23 23 29 33 29 28 26 25 22 20 18 23 36 37 39 32 21 17 27 8 2 5 3 15
25 23 22 21 23 23 21 15 16 20 28 31 35 34 32 29 26 24 24 24 21 34 40 35 34 22 26 30 13 6 3 2
23 21 22 24 24 21 21 20 18 23 24 30 34 34 30 29 27 28 25 24 26 22 32 32 36 28 24 26 20 13 7 3
23 24 21 23 24 23 21 21 23 24 25 25 25 29 34 32 31 29 28 27 23 25 26 36 36 36 35 34 32 12 7 4
20 24 22 25 26 25 22 21 21 20 22 25 28 27 28 31 32 31 28 28 27 28 25 32 36 35 35 32 33 30 27 23
23 24 22 28 27 26 24 22 19 20 20 23 27 29 32 33 34 32 31 29 29 30 32 28 36 38 37 36 32 33 31 27